CDT,Max TemperatureF,Mean TemperatureF,Min TemperatureF,Max Dew PointF,MeanDew PointF,Min DewpointF,Max Humidity, Mean Humidity, Min Humidity, Max Sea Level PressureIn, Mean Sea Level PressureIn, Min Sea Level PressureIn, Max VisibilityMiles, Mean VisibilityMiles, Min VisibilityMiles, Max Wind SpeedMPH, Mean Wind SpeedMPH, Max Gust SpeedMPH,PrecipitationIn, CloudCover, Events, WindDirDegrees
2013-3-1,27,24,20,20,18,13,81,75,68,30.28,30.20,30.10,10,8,4,23,14,29,T,8,Snow,2
2013-3-2,26,17,8,13,10,6,84,70,55,30.28,30.25,30.21,10,10,10,16,9,21,T,3,,348
2013-3-3,31,17,2,12,8,-1,100,70,39,30.22,30.16,30.12,10,10,10,8,2,9,0.00,1,,321
2013-3-4,32,23,14,24,18,10,80,70,59,30.16,30.08,30.02,10,10,10,16,8,31,T,7,Snow,93
2013-3-5,32,29,26,30,27,21,100,86,72,30.10,29.94,29.83,10,2,0,22,11,29,0.95,8,Fog-Snow,41
2013-3-6,33,30,26,24,23,21,81,77,72,30.35,30.29,30.14,10,10,9,17,11,22,T,8,Snow,324
2013-3-7,34,26,17,22,21,15,91,76,61,30.45,30.42,30.35,10,10,6,10,3,12,0.00,6,Fog,287
2013-3-8,36,23,10,26,19,9,96,80,64,30.51,30.44,30.31,10,7,2,16,6,20,0.00,4,,144
2013-3-9,40,35,29,34,30,23,85,79,72,30.30,30.05,29.82,10,9,6,22,12,29,0.11,8,Rain,154
2013-3-10,44,41,37,44,40,34,100,90,79,29.83,29.70,29.59,10,2,0,25,8,23,0.79,8,Fog-Rain,135
2013-3-11,39,36,32,39,33,27,100,91,82,29.83,29.64,29.58,9,4,0,23,8,23,0.11,8,Fog-Rain-Snow,292
2013-3-12,35,30,24,28,25,17,92,80,68,30.07,29.92,29.84,10,6,0,24,14,32,0.05,8,Snow,269
2013-3-13,31,26,21,18,14,11,74,60,46,30.37,30.26,30.08,10,10,9,20,11,25,T,3,Snow,306
2013-3-14,34,26,18,29,23,15,100,84,68,30.37,30.26,30.11,10,8,1,16,5,25,0.02,6,Snow,177
2013-3-15,37,31,25,36,31,25,100,91,82,30.09,29.92,29.76,10,3,1,17,5,22,0.06,7,Rain-Snow,97
2013-3-16,33,30,27,30,25,20,92,78,63,30.17,29.96,29.76,10,9,7,18,10,22,T,8,Rain-Snow,5
2013-3-17,35,29,22,23,19,13,72,66,60,30.25,30.16,30.00,10,10,9,20,11,23,0.00,7,,62
2013-3-18,34,27,19,31,26,10,92,80,67,29.98,29.74,29.62,10,4,1,29,12,40,0.12,8,Snow,142
2013-3-19,31,23,14,14,11,6,74,61,47,30.14,30.00,29.81,10,10,9,26,19,36,T,3,Snow,277
2013-3-20,24,17,10,9,6,1,67,61,54,30.17,30.13,30.09,10,10,9,23,15,29,T,1,Snow,300
2013-3-21,29,20,10,13,9,4,73,62,50,30.12,30.09,30.06,10,10,10,13,6,16,0.00,0,,306
2013-3-22,36,26,15,20,15,11,88,65,41,30.11,30.09,30.06,10,10,10,9,3,13,0.00,2,,302
2013-3-23,41,31,21,25,20,17,84,63,41,30.16,30.11,30.07,10,10,10,14,5,24,0.00,5,,54
2013-3-24,36,33,30,30,26,22,92,81,69,30.06,29.85,29.75,10,6,0,26,15,32,0.08,8,Fog-Snow,33
2013-3-25,36,32,27,26,23,20,78,71,64,30.13,29.95,29.81,10,9,2,23,13,30,T,8,Snow,351
2013-3-26,42,37,32,26,24,22,72,59,46,30.30,30.22,30.14,10,10,9,14,8,17,T,7,Snow,318
2013-3-27,43,36,28,27,23,19,78,59,39,30.36,30.33,30.30,10,10,9,12,4,15,0.00,6,,303
2013-3-28,48,36,24,28,23,20,92,64,36,30.39,30.36,30.32,10,10,10,9,2,13,0.00,2,,332
2013-3-29,54,42,29,29,25,23,78,54,29,30.35,30.31,30.26,10,10,10,10,3,14,0.00,2,,3
2013-3-30,57,45,32,43,34,23,76,64,51,30.26,30.05,29.86,10,9,2,22,10,29,T,7,Rain,186
2013-3-31,57,45,32,43,35,21,92,69,46,29.95,29.83,29.76,10,8,2,28,13,33,T,6,Rain,286